OBJECT AE, 62405

Orbit data source: Space-Track

You're viewing an Uncataloged Satellite

Recently launched and/or uncataloged satellites may have evolving metadata. Metadata may include but not limited to: Owner, Maufacturer, Bus, Motor, and Mission.

OBJECT AE, 62405 is a satellite in LEO that was launched on Sat, 21 Dec 2024 UTC via an FALCON 9 launch vehicle from the Air Force Western Test Range (AFWTR). Unknown objects in Earth's orbit typically refer to objects detected orbiting the Earth but have not yet been identified or cataloged. These objects could be anything from previously untracked satellites, spent rocket stages, debris from satellite collisions, or even natural meteoroids temporarily captured by Earth's gravity.

Loading next visibility...
Identifier
62405, 2024-247AE
Orbit
LEO
Country
Flag of TBDTBD
Related business
None
Manufacturer
Unknown
Mission
Operational Commercial Communications
Bus & Motor
Unknown
Mass
Unknown
Launch date (UTC)
2024-12-21 (1 year ago)
Launch vehicle
FALCON 9
Launch site
Air Force Western Test Range (AFWTR)
Object type
Unknown
Shape & HBR
Box, 0.1 m
Radar Cross Section
0.004 m², Small (<0.1 m²)

Expand to show TLE details & history
Last TLE update: 1 day ago

TLE from 1 day ago
0 OBJECT AE
1 62405U 24247AE  26036.00945945  .00058925  00000-0  11920-2 0  9993
2 62405  44.9782 267.5561 0009337 183.8905 176.1913 15.45646233 62477
Epoch: 2026-02-05T00:13Z
TLE epoch observation values (Epoch: 2026-02-05T00:13:37.296Z)
Latitude
-0.00005°
Longitude
128.98281°
Altitude
435.818 km
Speed
7.648 km/s
True Right ascension
17h 50m 13s
True Declination
0° 00' 00"
Sunlit
Object was in daylight at epoch
Visualization orbit readout
Latitude
Unknown
Longitude
Unknown
Altitude
Unknown
Speed
Unknown
Apparent Right ascension
Unknown
Apparent Declination
Unknown
Sunlit
N/A
Visualization observer readout
Local Sidereal Time
06:40:08
Azimuth
Unknown
Elevation
Unknown
Doppler factor
Unknown
Orbital elements
Apogee altitude
437.463 km
Perigee altitude
424.748 km
Semi-major axis
6,809.242 km
Eccentricity
0.00093
Inclination
44.9782°
RAAN
267.5561°
Arg. of periapsis
183.8905°
True anomaly
176.1984°
Mean anomaly
176.1913°
Eccentric anomaly
176.19485°
Mean motion
3.86274 °/min
Orbital period
93.2 mins
BSTAR
0.001192
Loading maneuver chart data...
Computing Atmospheric mass density...
Loading historical data...
Loading historical data...
Loading historical data...
Loading historical data...
Loading historical data...
Loading historical data...
Loading historical data...

Documentation

Showing up to 5 results
|